Location: Newark
(58.8333°N, 23.5833°E)
Time: 10:22:24
(UTC+00:00)

S-56A Canister/Altair - Pass Details

Date: 24 November 2019
Orbit: 633 x 2500 km, 38.9° (Epoch: 08 December)

Event Time Altitude Azimuth Distance (km) Brightness Sun altitude
Rises 14:45:07 0° 228° (SW) 5,541 13.9 -6.9°
Reaches altitude 10° 14:50:23 10° 214° (SW) 4,196 12.4 -7.5°
Maximum altitude 14:57:07 19° 175° (S) 3,017 10.8 -8.3°
Drops below altitude 10° 15:02:29 10° 134° (SE) 3,221 10.5 -8.9°
Sets 15:05:49 0° 117° (ESE) 3,894 10.8 -9.3°
